Location: Table Mountain
(47.2500°N, 120.5778°W)
Time: 20:20:14
(UTC-07:00)

Tiangong 2 - Pass Details

Date: 11 October 2017
Orbit: 388 x 392 km, 42.8° (Epoch: 18 October)

Event Time Altitude Azimuth Distance (km) Brightness Sun altitude
Exits shadow 04:43:28 11° 126° (SE) 1,370 4.2 -26.3°
Drops below altitude 10° 04:43:42 10° 122° (ESE) 1,415 4.4 -26.2°
Sets 04:46:34 0° 94° (E) 2,275 6.0 -25.8°
